FW9752 Weather Reports


time (UTC)temp
C
wind
direction
speed
KPH
gust
KPH
rain 1hr
cm
rain 24hr
cm
rain mn
cm
humidity
%
barometer
mb
20260505011544 23 266 4.8 12.9 0.00 0.00 0.00 60 1003.0
20260505010053 24 266 6.4 16.1 0.00 0.00 0.00 59 1003.1
20260505004549 24 268 9.7 16.1 0.00 0.00 0.00 58 1002.9
20260505003054 25 266 14.5 25.7 0.00 0.00 0.00 56 1002.7
20260505001542 25 266 11.3 22.5 0.00 0.00 0.00 56 1002.8
20260505000039 26 266 11.3 25.7 0.00 0.00 0.00 55 1002.8
20260504234535 26 266 14.5 25.7 0.00 0.00 0.00 53 1002.8
20260504233045 26 290 17.7 30.6 0.00 0.00 0.00 53 1002.6
20260504231542 26 281 14.5 38.6 0.00 0.00 0.00 53 1002.7
20260504230041 26 285 17.7 29.0 0.00 0.00 0.00 52 1002.7
20260504224537 26 266 17.7 35.4 0.00 0.00 0.00 51 1002.5
20260504223058 27 278 22.5 41.8 0.00 0.00 0.00 50 1002.8
20260504221542 27 276 19.3 37.0 0.00 0.00 0.00 50 1002.7
20260504220043 27 278 24.1 40.2 0.00 0.00 0.00 50 1002.5
20260504214541 27 266 24.1 41.8 0.00 0.00 0.00 49 1002.6
20260504213040 27 266 19.3 41.8 0.00 0.00 0.00 50 1002.8
20260504211624 26 277 20.9 33.8 0.00 0.00 0.00 51 1002.8
20260504210046 26 271 22.5 40.2 0.00 0.00 0.00 52 1003.0
20260504204543 26 266 20.9 33.8 0.00 0.00 0.00 53 1003.1
20260504203043 26 266 17.7 41.8 0.00 0.00 0.00 53 1003.4
20260504201540 26 272 24.1 46.7 0.00 0.00 0.00 52 1003.5
20260504200036 25 266 22.5 45.1 0.00 0.00 0.00 52 1003.5
20260504194539 26 266 20.9 41.8 0.00 0.00 0.00 53 1003.8
20260504193044 26 266 20.9 37.0 0.00 0.00 0.00 52 1003.7
20260504191601 26 266 20.9 41.8 0.00 0.00 0.00 52 1003.8
20260504190046 25 279 20.9 33.8 0.00 0.00 0.00 53 1004.0
20260504184547 25 268 22.5 45.1 0.00 0.00 0.00 52 1004.3
20260504183042 25 274 24.1 40.2 0.00 0.00 0.00 53 1004.4
20260504181542 25 266 22.5 32.2 0.00 0.00 0.00 53 1004.4
20260504180042 25 270 17.7 29.0 0.00 0.00 0.00 54 1004.5
20260504174544 24 268 16.1 29.0 0.00 0.00 0.00 54 1004.5
20260504173037 23 283 14.5 27.4 0.00 0.00 0.00 55 1004.5
20260504171544 22 266 9.7 16.1 0.00 0.00 0.00 56 1004.9
20260504081543 17 266 3.2 6.4 0.00 0.00 0.00 63 1007.8
20260504044536 19 266 8.0 12.9 0.00 0.00 0.00 58 1008.6
20260504043047 20 266 6.4 11.3 0.00 0.00 0.00 57 1008.6
20260504041542 20 266 6.4 11.3 0.00 0.00 0.00 56 1008.8
20260504040047 20 266 6.4 14.5 0.00 0.00 0.00 57 1009.1
20260504034541 20 266 6.4 14.5 0.00 0.00 0.00 56 1009.2
20260504033036 20 271 9.7 16.1 0.00 0.00 0.00 55 1009.2
20260504031554 21 277 8.0 19.3 0.00 0.00 0.00 55 1009.4
20260504030044 21 266 11.3 17.7 0.00 0.00 0.00 55 1009.3
20260504024540 21 266 9.7 20.9 0.00 0.00 0.00 55 1009.3
20260504023043 21 266 9.7 22.5 0.00 0.00 0.00 54 1009.1
20260504021540 21 266 9.7 17.7 0.00 0.00 0.00 53 1009.1
20260504020039 21 266 6.4 16.1 0.00 0.00 0.00 53 1009.2
20260504014546 22 266 9.7 17.7 0.00 0.00 0.00 52 1009.3
20260504013046 22 266 8.0 16.1 0.00 0.00 0.00 51 1009.1